Powrót do katalogu

STARLINK-11591

AktywnyŁącznośćVLEO
NORAD 63116·PAYLOAD·🇺🇸 United States

Wystrzelony Feb 27, 2025 z Cape Canaveral Space Force Station

Loading…

Następne Przeloty (najbliższe 24 godziny)

TLE

ŚwieżeSource: CelesTrak SupGP

Epoka: Sep 14, 2026, 22:44 UTC

1 63116C 25039N   26257.94770833 -.00048761  00000+0 -37872-3 0  2573
2 63116  43.0003 175.6710 0001512 265.4490 149.3706 15.70863075    18

Śledź STARLINK-11591 w czasie rzeczywistym z AllMySat

Download on the App Store